DW3929 Weather Reports


Display with metric or nautical units.
time (UTC)temp
F
wind
direction
speed
MPH
gust
MPH
rain 1hr
in
rain 24hr
in
rain mn
in
humidity
%
barometer
mb
20181019002832 60 317 1.0 5.0 0.00 0.04 0.04 89 1022.6
20181019002319 60 320 1.0 4.0 0.00 0.04 0.04 89 1022.6
20181019001828 60 320 0.0 5.0 0.00 0.04 0.04 89 1022.5
20181019001336 60 320 2.0 5.0 0.00 0.04 0.04 89 1022.5
20181019000823 60 319 0.0 4.0 0.00 0.04 0.04 89 1022.5
20181019000316 60 318 0.0 5.0 0.00 0.04 0.04 89 1022.6
20181018235824 60 318 1.0 5.0 0.00 0.04 0.04 89 1022.5
20181018235335 60 325 0.0 5.0 0.00 0.04 0.04 89 1022.5
20181018234822 60 325 2.0 5.0 0.00 0.04 0.04 89 1022.4
20181018234330 60 333 1.0 5.0 0.00 0.04 0.04 89 1022.4
20181018233818 60 324 1.0 5.0 0.00 0.04 0.04 89 1022.4
20181018233327 60 324 0.0 5.0 0.00 0.04 0.04 89 1022.5
20181018232835 60 323 1.0 4.0 0.00 0.04 0.04 89 1022.6
20181018232322 60 322 0.0 5.0 0.00 0.04 0.04 89 1022.6
20181018231834 60 321 2.0 5.0 0.00 0.04 0.04 89 1022.6
20181018231321 60 321 1.0 5.0 0.00 0.04 0.04 89 1022.5
20181018230830 60 323 1.0 6.0 0.00 0.04 0.04 89 1022.6
20181018230319 60 319 0.0 6.0 0.00 0.04 0.04 89 1022.6
20181018225828 60 316 2.0 5.0 0.00 0.04 0.04 89 1022.6
20181018225335 60 323 1.0 5.0 0.00 0.04 0.04 89 1022.7
20181018224823 60 322 2.0 4.0 0.00 0.04 0.04 89 1022.8
20181018224331 60 324 1.0 4.0 0.00 0.04 0.04 89 1022.8
20181018223818 60 324 0.0 6.0 0.00 0.04 0.04 89 1022.9
20181018223332 60 325 1.0 9.0 0.00 0.04 0.04 89 1022.9
20181018222819 60 346 5.0 9.0 0.00 0.04 0.04 89 1022.8
20181018222327 60 319 1.0 6.0 0.00 0.04 0.04 89 1022.8
20181018221835 60 326 3.0 6.0 0.00 0.04 0.04 89 1022.8
20181018221323 60 329 2.0 6.0 0.00 0.04 0.04 89 1022.8
20181018220834 60 329 1.0 8.0 0.00 0.04 0.04 89 1022.7
20181018220323 60 327 5.0 8.0 0.00 0.04 0.04 89 1022.6
20181018215830 60 307 4.0 7.0 0.00 0.04 0.04 89 1022.7
20181018215318 60 311 1.0 6.0 0.00 0.04 0.04 89 1022.8
20181018214830 60 317 2.0 6.0 0.00 0.04 0.04 89 1022.7
20181018214318 60 329 0.0 9.0 0.00 0.04 0.04 89 1022.5
20181018213825 60 316 3.0 9.0 0.00 0.04 0.04 89 1022.5
20181018213334 60 301 2.0 7.0 0.00 0.04 0.04 89 1022.4
20181018212822 60 323 1.0 8.0 0.00 0.04 0.04 89 1022.3
20181018212329 60 323 2.0 8.0 0.00 0.04 0.04 89 1022.4
20181018211820 60 315 4.0 10.0 0.00 0.04 0.04 89 1022.5
20181018211329 60 326 0.0 10.0 0.00 0.04 0.04 89 1022.5
20181018210816 60 322 3.0 7.0 0.01 0.04 0.04 89 1022.7
20181018210329 60 338 1.0 6.0 0.01 0.04 0.04 89 1022.5
20181018205818 60 323 1.0 4.0 0.01 0.04 0.04 89 1022.6
20181018205325 60 323 0.0 3.0 0.01 0.04 0.04 89 1022.6
20181018204816 60 321 0.0 7.0 0.01 0.04 0.04 89 1022.6
20181018204324 60 318 2.0 8.0 0.01 0.04 0.04 89 1022.5
20181018203832 60 360 3.0 8.0 0.01 0.04 0.04 89 1022.5
20181018203321 60 323 3.0 6.0 0.02 0.04 0.04 89 1022.5
20181018202829 60 313 3.0 8.0 0.02 0.04 0.04 89 1022.5
20181018202317 60 306 4.0 8.0 0.02 0.04 0.04 89 1022.5
20181018201832 60 333 3.0 7.0 0.02 0.04 0.04 89 1022.5
20181018201319 60 333 2.0 7.0 0.02 0.04 0.04 89 1022.6
20181018200827 60 346 1.0 7.0 0.01 0.03 0.03 89 1022.6
20181018200319 60 350 2.0 7.0 0.02 0.03 0.03 89 1022.6
20181018195827 60 350 2.0 7.0 0.02 0.03 0.03 89 1022.6
20181018195314 59 345 0.0 7.0 0.02 0.03 0.03 89 1022.7
20181018194825 59 312 1.0 7.0 0.02 0.03 0.03 89 1022.9
20181018194316 59 312 3.0 7.0 0.02 0.03 0.03 89 1023.0
20181018193824 59 303 0.0 7.0 0.02 0.03 0.03 89 1023.1
20181018193317 59 300 1.0 7.0 0.01 0.02 0.02 89 1023.3
20181018192826 59 310 1.0 6.0 0.01 0.02 0.02 89 1023.5
20181018192333 59 309 2.0 6.0 0.01 0.02 0.02 89 1023.5
20181018191821 59 308 0.0 8.0 0.01 0.02 0.02 89 1023.6
20181018191328 59 306 4.0 8.0 0.01 0.02 0.02 89 1023.6
20181018190834 60 313 2.0 7.0 0.01 0.02 0.02 89 1023.7
20181018190323 60 329 3.0 7.0 0.00 0.01 0.01 88 1023.7
20181018185831 60 348 3.0 7.0 0.00 0.01 0.01 88 1023.7
20181018185319 60 331 3.0 7.0 0.00 0.01 0.01 87 1023.9
20181018184831 60 340 2.0 6.0 0.00 0.01 0.01 87 1023.9
20181018184318 60 336 2.0 9.0 0.00 0.01 0.01 87 1024.0
20181018183828 61 332 3.0 9.0 0.00 0.01 0.01 87 1024.2
20181018183317 61 339 1.0 8.0 0.00 0.01 0.01 86 1024.2
20181018182824 61 336 4.0 14.0 0.00 0.01 0.01 86 1024.2
20181018182332 61 348 4.0 14.0 0.00 0.01 0.01 86 1024.3
20181018181820 61 360 3.0 13.0 0.00 0.01 0.01 86 1024.4
20181018181328 60 5 2.0 11.0 0.00 0.01 0.01 87 1024.4
20181018180836 60 349 2.0 12.0 0.00 0.01 0.01 87 1024.5
20181018180328 60 355 4.0 12.0 0.00 0.01 0.01 87 1024.7
20181018175835 60 348 4.0 10.0 0.00 0.01 0.01 88 1024.8
20181018175323 60 48 4.0 10.0 0.00 0.01 0.01 87 1025.0
20181018174832 59 331 3.0 10.0 0.00 0.01 0.01 88 1024.9
20181018174323 59 14 4.0 10.0 0.00 0.01 0.01 87 1025.0
20181018173831 59 315 4.0 8.0 0.00 0.01 0.01 88 1025.3
20181018173320 59 336 4.0 8.0 0.00 0.01 0.01 88 1025.4
20181018172831 59 335 2.0 7.0 0.00 0.01 0.01 88 1025.4
20181018172322 59 324 2.0 6.0 0.01 0.01 0.01 88 1025.5
20181018171813 59 329 3.0 7.0 0.01 0.01 0.01 88 1025.5
20181018171324 59 323 1.0 7.0 0.01 0.01 0.01 88 1025.4
20181018170832 59 313 3.0 9.0 0.01 0.01 0.01 89 1025.4
20181018170321 59 332 1.0 9.0 0.01 0.01 0.01 88 1025.4
20181018165829 59 314 2.0 8.0 0.01 0.01 0.01 89 1025.5
20181018165316 58 39 5.0 8.0 0.01 0.01 0.01 89 1025.4
20181018164824 58 350 1.0 8.0 0.01 0.01 0.01 89 1025.5
20181018164332 58 340 4.0 8.0 0.01 0.01 0.01 89 1025.6
20181018163823 58 5 0.0 9.0 0.01 0.01 0.01 88 1025.6
20181018163316 58 10 3.0 9.0 0.01 0.01 0.01 88 1025.5
20181018162824 58 336 2.0 8.0 0.01 0.01 0.01 89 1025.5
20181018162335 58 300 1.0 9.0 0.00 0.00 0.00 88 1025.6
20181018161822 58 318 2.0 10.0 0.00 0.00 0.00 88 1025.6
20181018161331 58 329 4.0 10.0 0.00 0.00 0.00 87 1025.5
20181018160818 59 355 1.0 10.0 0.00 0.00 0.00 87 1025.6
20181018160330 59 355 3.0 10.0 0.00 0.00 0.00 86 1025.5
20181018155818 59 300 3.0 11.0 0.00 0.00 0.00 84 1025.7
20181018155326 59 346 4.0 11.0 0.00 0.00 0.00 84 1025.8
20181018154817 59 350 3.0 9.0 0.00 0.00 0.00 85 1025.9
20181018154325 59 313 3.0 9.0 0.00 0.00 0.00 85 1025.9
20181018153833 59 23 3.0 10.0 0.00 0.00 0.00 84 1025.9
20181018153322 59 303 1.0 10.0 0.00 0.00 0.00 85 1025.9
20181018152829 58 336 1.0 10.0 0.00 0.00 0.00 85 1026.0
20181018152317 58 5 4.0 10.0 0.00 0.00 0.00 86 1025.9
20181018151825 58 327 3.0 9.0 0.00 0.00 0.00 85 1025.9
20181018151333 58 321 3.0 7.0 0.00 0.00 0.00 85 1025.9
20181018150820 58 325 3.0 8.0 0.00 0.00 0.00 86 1025.9
20181018150316 57 327 2.0 10.0 0.00 0.00 0.00 86 1025.9
20181018145824 57 355 6.0 10.0 0.00 0.00 0.00 86 1025.8
20181018145332 57 333 2.0 10.0 0.00 0.00 0.00 87 1025.7
20181018144821 57 349 0.0 11.0 0.00 0.00 0.00 86 1025.8
20181018144329 57 302 3.0 11.0 0.00 0.00 0.00 86 1025.9
20181018143821 56 328 2.0 9.0 0.00 0.00 0.00 87 1025.8
20181018143329 56 338 5.0 9.0 0.00 0.00 0.00 87 1025.7
20181018142816 56 318 4.0 9.0 0.00 0.00 0.00 87 1025.8
20181018142327 56 318 3.0 9.0 0.00 0.00 0.00 87 1025.7
20181018141822 56 355 4.0 9.0 0.00 0.00 0.00 87 1025.7
20181018141333 56 314 3.0 7.0 0.00 0.00 0.00 87 1025.8
20181018140822 56 324 3.0 6.0 0.00 0.00 0.00 88 1025.7
20181018140330 56 320 0.0 6.0 0.00 0.00 0.00 87 1025.6
20181018135817 55 316 3.0 8.0 0.00 0.00 0.00 87 1025.4
20181018135326 55 333 3.0 8.0 0.00 0.00 0.00 87 1025.4
20181018134833 55 307 3.0 7.0 0.00 0.00 0.00 88 1025.3
20181018134322 55 340 4.0 9.0 0.00 0.00 0.00 88 1025.2
20181018133830 55 12 4.0 9.0 0.00 0.00 0.00 87 1025.2
20181018133323 55 316 2.0 8.0 0.00 0.00 0.00 88 1025.1
20181018132830 55 317 4.0 8.0 0.00 0.00 0.00 88 1025.0
20181018132318 55 313 4.0 10.0 0.00 0.00 0.00 88 1025.0
20181018131826 55 331 4.0 10.0 0.00 0.00 0.00 88 1024.9
20181018131334 55 314 1.0 6.0 0.00 0.00 0.00 88 1024.8
20181018130823 55 315 3.0 6.0 0.00 0.00 0.00 88 1024.8
20181018130332 54 316 3.0 5.0 0.00 0.00 0.00 88 1024.8
20181018125820 54 329 3.0 9.0 0.00 0.00 0.00 88 1024.8
20181018125327 54 336 3.0 9.0 0.00 0.00 0.00 88 1024.8
20181018124822 54 336 2.0 6.0 0.00 0.00 0.00 88 1024.9
20181018124330 54 325 0.0 9.0 0.00 0.00 0.00 88 1024.9
20181018123818 54 329 0.0 9.0 0.00 0.00 0.00 88 1024.8
20181018123328 54 326 3.0 8.0 0.00 0.00 0.00 88 1024.7
20181018122816 54 324 1.0 6.0 0.00 0.00 0.00 88 1024.7
20181018122328 54 326 3.0 6.0 0.00 0.00 0.00 88 1024.7
20181018121836 54 323 1.0 7.0 0.00 0.00 0.00 88 1024.7
20181018121323 54 318 3.0 7.0 0.00 0.00 0.00 88 1024.6
20181018120831 54 316 2.0 8.0 0.00 0.00 0.00 88 1024.7
20181018120324 54 317 4.0 8.0 0.00 0.00 0.00 88 1024.7
20181018115832 54 311 2.0 6.0 0.00 0.00 0.00 88 1024.6
20181018115320 54 322 3.0 6.0 0.00 0.00 0.00 88 1024.6
20181018114831 54 329 0.0 8.0 0.00 0.00 0.00 88 1024.6
20181018114318 54 325 5.0 12.0 0.00 0.00 0.00 88 1024.5
20181018113826 54 326 1.0 12.0 0.00 0.00 0.00 88 1024.5
20181018113336 54 333 3.0 7.0 0.00 0.00 0.00 89 1024.5
20181018112823 54 335 3.0 9.0 0.00 0.00 0.00 88 1024.5
20181018112318 54 346 3.0 9.0 0.00 0.00 0.00 89 1024.4
20181018111826 54 319 1.0 7.0 0.00 0.00 0.00 89 1024.5
20181018111313 54 319 1.0 7.0 0.00 0.00 0.00 88 1024.6
20181018110826 54 343 1.0 7.0 0.00 0.00 0.00 88 1024.6
20181018110314 54 321 2.0 6.0 0.00 0.00 0.00 89 1024.5
20181018105824 54 342 1.0 9.0 0.00 0.00 0.00 89 1024.6
20181018105332 54 347 3.0 9.0 0.00 0.00 0.00 89 1024.6
20181018104817 54 346 3.0 6.0 0.00 0.00 0.00 89 1024.6
20181018104325 54 323 0.0 7.0 0.00 0.00 0.00 89 1024.5
20181018103819 54 335 4.0 8.0 0.00 0.00 0.00 89 1024.4
20181018103329 54 355 4.0 8.0 0.00 0.00 0.00 89 1024.4
20181018102817 54 329 1.0 9.0 0.00 0.00 0.00 89 1024.4
20181018102327 54 346 3.0 11.0 0.00 0.00 0.00 89 1024.4
20181018101835 54 330 4.0 11.0 0.00 0.00 0.00 89 1024.3
20181018101323 54 328 4.0 9.0 0.00 0.00 0.00 89 1024.3
20181018100834 54 340 5.0 8.0 0.00 0.00 0.00 89 1024.2
20181018100323 54 331 2.0 8.0 0.00 0.00 0.00 89 1024.3
20181018095832 54 315 3.0 9.0 0.00 0.00 0.00 89 1024.3
20181018095323 54 313 2.0 9.0 0.00 0.00 0.00 89 1024.2
20181018094831 54 332 3.0 9.0 0.00 0.00 0.00 89 1024.2
20181018094319 54 355 3.0 10.0 0.00 0.00 0.00 89 1024.2
20181018093827 54 325 3.0 10.0 0.00 0.00 0.00 89 1024.2
20181018093336 54 355 3.0 7.0 0.00 0.00 0.00 89 1024.2
20181018092823 54 320 3.0 8.0 0.00 0.00 0.00 89 1024.3
20181018092332 54 328 3.0 10.0 0.00 0.00 0.00 89 1024.2
20181018091327 54 302 3.0 9.0 0.00 0.00 0.00 89 1024.2
20181018090819 54 305 3.0 8.0 0.00 0.00 0.00 89 1024.2
20181018090327 54 338 2.0 8.0 0.00 0.00 0.00 89 1024.3
20181018085835 54 345 4.0 8.0 0.00 0.00 0.00 89 1024.3
20181018085322 54 302 2.0 7.0 0.00 0.00 0.00 89 1024.2
20181018084831 54 316 3.0 8.0 0.00 0.00 0.00 89 1024.2
20181018084319 54 333 3.0 11.0 0.00 0.00 0.00 89 1024.2
20181018083826 54 309 4.0 9.0 0.00 0.00 0.00 89 1024.3
20181018083335 54 331 1.0 7.0 0.00 0.00 0.00 89 1024.3
20181018082822 54 298 2.0 7.0 0.00 0.00 0.00 89 1024.4
20181018082332 54 311 4.0 9.0 0.00 0.00 0.00 89 1024.5
20181018081822 54 330 3.0 9.0 0.00 0.00 0.00 89 1024.6
20181018081331 54 302 2.0 8.0 0.00 0.00 0.00 89 1024.6
20181018080822 54 331 2.0 8.0 0.00 0.00 0.00 89 1024.6
20181018080331 54 344 2.0 10.0 0.00 0.00 0.00 90 1024.7
20181018075818 54 320 2.0 10.0 0.00 0.00 0.00 90 1024.8
20181018075326 54 309 4.0 9.0 0.00 0.00 0.00 90 1024.9
20181018074835 54 341 1.0 9.0 0.00 0.00 0.00 90 1025.0
20181018074323 54 325 2.0 10.0 0.00 0.00 0.00 90 1025.0
20181018073831 54 323 3.0 10.0 0.00 0.00 0.00 90 1025.0
20181018073323 54 309 4.0 9.0 0.00 0.00 0.00 90 1025.1
20181018072831 54 325 2.0 11.0 0.00 0.00 0.00 90 1025.2
20181018072319 54 19 5.0 11.0 0.00 0.00 0.00 90 1025.2
20181018071828 54 328 5.0 10.0 0.00 0.00 0.00 90 1025.2
20181018071336 54 355 2.0 9.0 0.00 0.00 0.00 90 1025.1
20181018070824 54 330 2.0 8.0 0.00 0.00 0.00 90 1025.2
20181018070333 54 355 2.0 9.0 0.00 0.00 0.00 90 1025.3
20181018065820 54 311 2.0 9.0 0.00 0.00 0.00 90 1025.3
20181018065331 54 341 4.0 8.0 0.00 0.00 0.00 90 1025.2
20181018064823 54 11 5.0 9.0 0.00 0.00 0.00 90 1025.2
20181018064331 54 327 4.0 9.0 0.00 0.00 0.00 90 1025.2
20181018063818 54 309 5.0 9.0 0.00 0.00 0.00 90 1025.3
20181018063328 54 9 3.0 9.0 0.00 0.00 0.00 90 1025.4
20181018062835 54 334 3.0 7.0 0.00 0.00 0.00 90 1025.4
20181018062323 54 322 0.0 7.0 0.00 0.00 0.00 90 1025.4
20181018061831 54 350 2.0 10.0 0.00 0.00 0.00 90 1025.3
20181018061319 54 346 3.0 10.0 0.00 0.00 0.00 90 1025.4
20181018060828 54 326 3.0 8.0 0.00 0.00 0.00 90 1025.4
20181018060319 54 338 1.0 8.0 0.00 0.00 0.00 90 1025.3
20181018055827 54 338 2.0 10.0 0.00 0.00 0.00 90 1025.3
20181018055314 54 347 6.0 10.0 0.00 0.00 0.00 90 1025.2
20181018054825 54 339 1.0 10.0 0.00 0.00 0.00 90 1025.3
20181018054316 54 341 2.0 6.0 0.00 0.00 0.00 90 1025.5
20181018053824 54 347 1.0 7.0 0.00 0.00 0.00 90 1025.6
20181018053333 54 318 2.0 11.0 0.00 0.00 0.00 90 1025.6
20181018052822 54 5 5.0 11.0 0.00 0.00 0.00 90 1025.6
20181018052331 54 277 1.0 9.0 0.00 0.00 0.00 90 1025.7
20181018051822 54 311 4.0 11.0 0.00 0.00 0.00 90 1025.6
20181018051330 54 290 5.0 11.0 0.00 0.00 0.00 90 1025.6
20181018050819 54 5 2.0 11.0 0.00 0.00 0.00 90 1025.5
20181018050331 54 355 2.0 11.0 0.00 0.00 0.00 90 1025.6
20181018045817 54 342 2.0 11.0 0.00 0.00 0.00 90 1025.6
20181018045329 54 355 2.0 12.0 0.00 0.00 0.00 90 1025.6
20181018044816 54 335 2.0 12.0 0.00 0.00 0.00 90 1025.6
20181018044324 54 340 4.0 9.0 0.00 0.00 0.00 90 1025.8
20181018043816 54 315 4.0 8.0 0.00 0.00 0.00 90 1025.8
20181018043325 54 330 2.0 8.0 0.00 0.00 0.00 90 1025.9
20181018042834 54 343 2.0 9.0 0.00 0.00 0.00 90 1025.9
20181018042321 54 316 2.0 10.0 0.00 0.00 0.00 90 1025.8
20181018041829 54 333 2.0 10.0 0.00 0.00 0.00 90 1025.9
20181018041319 53 343 2.0 10.0 0.00 0.00 0.00 90 1026.0
20181018040827 53 313 6.0 10.0 0.00 0.00 0.00 90 1026.0
20181018040316 53 336 4.0 9.0 0.00 0.00 0.00 90 1025.9
20181018035824 53 347 3.0 16.0 0.00 0.00 0.00 90 1025.9
20181018035316 53 347 8.0 16.0 0.00 0.00 0.00 90 1025.9
20181018034824 53 317 5.0 12.0 0.00 0.00 0.00 90 1025.9
20181018034330 53 321 3.0 10.0 0.00 0.00 0.00 90 1025.9
20181018033820 53 336 4.0 12.0 0.00 0.00 0.00 90 1025.9
20181018033329 53 355 3.0 12.0 0.00 0.00 0.00 90 1025.9
20181018032816 53 331 2.0 10.0 0.00 0.00 0.00 90 1025.9
20181018032324 53 355 3.0 10.0 0.00 0.00 0.00 90 1025.9
20181018031832 53 319 6.0 10.0 0.00 0.00 0.00 90 1025.7
20181018031322 53 317 5.0 12.0 0.00 0.00 0.00 90 1025.7
20181018030829 53 340 4.0 12.0 0.00 0.00 0.00 90 1025.6
20181018030321 53 317 5.0 11.0 0.00 0.00 0.00 90 1025.5
20181018025828 53 322 5.0 12.0 0.00 0.00 0.00 90 1025.7
20181018025317 53 340 4.0 12.0 0.00 0.00 0.00 90 1025.7
20181018024824 53 11 5.0 11.0 0.00 0.00 0.00 90 1025.6
20181018024332 53 33 6.0 11.0 0.00 0.00 0.00 90 1025.6
20181018023823 53 237 5.0 11.0 0.00 0.00 0.00 90 1025.4
20181018023332 53 348 4.0 16.0 0.00 0.00 0.00 90 1025.3
20181018022820 53 360 5.0 16.0 0.00 0.00 0.00 90 1025.2
20181018022328 53 337 4.0 10.0 0.00 0.00 0.00 90 1025.2
20181018021822 53 333 3.0 12.0 0.00 0.00 0.00 90 1025.3
20181018021330 53 15 4.0 11.0 0.00 0.00 0.00 90 1025.3
20181018020818 53 32 4.0 13.0 0.00 0.00 0.00 90 1025.2
20181018020327 53 335 3.0 15.0 0.00 0.00 0.00 90 1025.2
20181018015835 53 348 4.0 15.0 0.00 0.00 0.00 90 1025.1
20181018015322 53 355 3.0 12.0 0.00 0.00 0.00 90 1025.0
20181018014831 53 306 4.0 12.0 0.00 0.00 0.00 90 1025.0
20181018014319 53 313 5.0 12.0 0.00 0.00 0.00 90 1025.1
20181018013830 53 342 2.0 13.0 0.00 0.00 0.00 90 1025.1
20181018013323 53 323 4.0 13.0 0.00 0.00 0.00 90 1024.8
20181018012831 54 30 5.0 14.0 0.00 0.00 0.00 90 1024.8
20181018012318 54 336 5.0 12.0 0.00 0.00 0.00 90 1024.7
20181018011827 54 348 4.0 12.0 0.00 0.00 0.00 90 1024.7
20181018011334 54 325 4.0 19.0 0.00 0.00 0.00 90 1024.7
20181018010822 54 333 7.0 19.0 0.00 0.00 0.00 90 1024.7
20181018010331 54 346 5.0 16.0 0.00 0.00 0.00 90 1024.7
20181018005821 54 306 4.0 13.0 0.00 0.00 0.00 90 1024.7
20181018005326 54 5 2.0 13.0 0.00 0.00 0.00 90 1024.6
20181018004821 54 319 3.0 13.0 0.00 0.00 0.00 90 1024.5
20181018004328 54 317 3.0 11.0 0.00 0.00 0.00 90 1024.6
20181018003816 54 334 8.0 14.0 0.00 0.00 0.00 90 1024.6
20181018003329 55 319 5.0 14.0 0.00 0.00 0.00 90 1024.5